Location: Bay Harbour
(38.2612°N, 75.2555°W)
Time: 00:22:40
(UTC+00:00)

MOS 1 Rocket - Pass Details

Date: 29 October 2020
Orbit: 615 x 829 km, 97.4° (Epoch: 03 December)

Event Time Altitude Azimuth Distance (km) Brightness Sun altitude
Rises 23:02:28 0° 24° (NNE) 3,087 6.3 -12.0°
Reaches altitude 10° 23:04:58 10° 37° (NE) 2,201 5.5 -12.4°
Maximum altitude 23:09:08 28° 96° (E) 1,367 4.2 -13.3°
Drops below altitude 10° 23:13:29 10° 155° (SSE) 2,305 5.8 -14.1°
Sets 23:16:09 0° 166° (SSE) 3,260 6.7 -14.6°
